| time (UTC) | temp F | wind direction | speed MPH | gust MPH | rain 1hr in | rain 24hr in | rain mn in | humidity % | barometer mb |
| 20260508164024 | 67 | 12 | 2.0 | 4.0 | 0.00 | 0.17 | 0.00 | 86 | 1012.5 |
| 20260508163024 | 67 | 7 | 1.0 | 3.0 | 0.00 | 0.18 | 0.00 | 87 | 1012.5 |
| 20260508162024 | 67 | 55 | 2.0 | 7.0 | 0.00 | 0.20 | 0.00 | 87 | 1012.3 |
| 20260508161024 | 67 | 21 | 2.0 | 4.0 | 0.00 | 0.22 | 0.00 | 87 | 1012.5 |
| 20260508160024 | 66 | 37 | 2.0 | 6.0 | 0.00 | 0.24 | 0.00 | 88 | 1012.7 |
| 20260508155023 | 66 | 31 | 2.0 | 4.0 | 0.00 | 0.25 | 0.00 | 89 | 1012.8 |
| 20260508154023 | 66 | 25 | 2.0 | 8.0 | 0.00 | 0.25 | 0.00 | 89 | 1012.8 |
| 20260508153024 | 65 | 1 | 1.0 | 4.0 | 0.00 | 0.26 | 0.00 | 91 | 1013.1 |
| 20260508152024 | 64 | 321 | 1.0 | 3.0 | 0.00 | 0.28 | 0.00 | 91 | 1013.4 |
| 20260508151024 | 64 | 348 | 1.0 | 3.0 | 0.00 | 0.28 | 0.00 | 91 | 1013.3 |
| 20260508150023 | 64 | 47 | 2.0 | 4.0 | 0.00 | 0.28 | 0.00 | 89 | 1013.5 |
| 20260508145024 | 64 | 8 | 1.0 | 3.0 | 0.00 | 0.28 | 0.00 | 90 | 1013.8 |
| 20260508144023 | 65 | 8 | 1.0 | 2.0 | 0.00 | 0.28 | 0.00 | 89 | 1013.7 |
| 20260508143025 | 65 | 8 | 1.0 | 3.0 | 0.00 | 0.28 | 0.00 | 88 | 1013.6 |
| 20260508142023 | 65 | 23 | 1.0 | 2.0 | 0.00 | 0.28 | 0.00 | 88 | 1013.8 |
| 20260508141043 | 65 | 17 | 1.0 | 3.0 | 0.00 | 0.28 | 0.00 | 87 | 1013.9 |
| 20260508140024 | 65 | 356 | 1.0 | 3.0 | 0.00 | 0.28 | 0.00 | 88 | 1013.8 |
| 20260508135024 | 65 | 16 | 1.0 | 3.0 | 0.00 | 0.28 | 0.00 | 87 | 1013.7 |
| 20260508134024 | 65 | 40 | 2.0 | 4.0 | 0.00 | 0.28 | 0.00 | 87 | 1013.6 |
| 20260508133024 | 65 | 20 | 1.0 | 4.0 | 0.00 | 0.28 | 0.00 | 88 | 1013.8 |
| 20260508132044 | 65 | 31 | 2.0 | 4.0 | 0.00 | 0.28 | 0.00 | 89 | 1013.4 |
| 20260508131024 | 64 | 34 | 2.0 | 4.0 | 0.00 | 0.28 | 0.00 | 89 | 1013.6 |
| 20260508130024 | 64 | 44 | 3.0 | 7.0 | 0.00 | 0.28 | 0.00 | 89 | 1013.6 |
| 20260508125024 | 64 | 47 | 3.0 | 8.0 | 0.00 | 0.28 | 0.00 | 89 | 1013.6 |
| 20260508124024 | 65 | 33 | 4.0 | 9.0 | 0.00 | 0.28 | 0.00 | 89 | 1013.6 |
| 20260508123024 | 65 | 26 | 3.0 | 8.0 | 0.00 | 0.28 | 0.00 | 86 | 1013.5 |
| 20260508122024 | 66 | 39 | 3.0 | 9.0 | 0.00 | 0.28 | 0.00 | 85 | 1013.5 |
| 20260508121024 | 65 | 54 | 2.0 | 6.0 | 0.00 | 0.28 | 0.00 | 86 | 1013.5 |
| 20260508120024 | 65 | 30 | 2.0 | 6.0 | 0.00 | 0.28 | 0.00 | 87 | 1013.4 |
| 20260508115024 | 65 | 24 | 1.0 | 3.0 | 0.00 | 0.28 | 0.00 | 89 | 1013.4 |
| 20260508114024 | 65 | 47 | 1.0 | 4.0 | 0.00 | 0.28 | 0.00 | 89 | 1013.5 |
| 20260508113024 | 64 | 50 | 2.0 | 4.0 | 0.00 | 0.28 | 0.00 | 91 | 1013.7 |
| 20260508112024 | 63 | 27 | 1.0 | 3.0 | 0.00 | 0.28 | 0.00 | 93 | 1013.7 |
| 20260508111024 | 63 | 39 | 3.0 | 6.0 | 0.00 | 0.28 | 0.00 | 93 | 1013.7 |
| 20260508110043 | 64 | 32 | 2.0 | 4.0 | 0.00 | 0.28 | 0.00 | 91 | 1013.9 |
| 20260508105023 | 65 | 22 | 2.0 | 6.0 | 0.00 | 0.28 | 0.00 | 87 | 1013.7 |
| 20260508104023 | 64 | 24 | 2.0 | 4.0 | 0.00 | 0.28 | 0.00 | 91 | 1013.6 |
| 20260508103023 | 64 | 42 | 3.0 | 7.0 | 0.00 | 0.28 | 0.00 | 90 | 1013.6 |
| 20260508102024 | 64 | 32 | 1.0 | 4.0 | 0.00 | 0.28 | 0.00 | 91 | 1013.6 |
| 20260508101024 | 63 | 29 | 2.0 | 4.0 | 0.00 | 0.28 | 0.00 | 90 | 1013.7 |
| 20260508100024 | 63 | 24 | 2.0 | 7.0 | 0.00 | 0.28 | 0.00 | 91 | 1013.9 |
| 20260508095024 | 63 | 49 | 2.0 | 4.0 | 0.00 | 0.28 | 0.00 | 92 | 1014.0 |
| 20260508094024 | 62 | 49 | 2.0 | 4.0 | 0.00 | 0.28 | 0.00 | 93 | 1014.0 |
| 20260508093027 | 62 | 35 | 2.0 | 3.0 | 0.00 | 0.28 | 0.00 | 94 | 1013.9 |
| 20260508092023 | 62 | 35 | 1.0 | 3.0 | 0.00 | 0.28 | 0.00 | 94 | 1013.9 |
| 20260508091023 | 61 | 33 | 2.0 | 3.0 | 0.00 | 0.28 | 0.00 | 95 | 1014.0 |
| 20260508090044 | 61 | 25 | 2.0 | 4.0 | 0.00 | 0.28 | 0.00 | 95 | 1013.7 |
| 20260508085024 | 61 | 34 | 1.0 | 3.0 | 0.00 | 0.28 | 0.00 | 96 | 1013.8 |
| 20260508084024 | 60 | 39 | 1.0 | 3.0 | 0.00 | 0.28 | 0.00 | 97 | 1013.5 |
| 20260508083024 | 60 | 35 | 1.0 | 3.0 | 0.00 | 0.28 | 0.00 | 96 | 1013.7 |
| 20260508082044 | 60 | 39 | 1.0 | 4.0 | 0.00 | 0.28 | 0.00 | 96 | 1013.7 |
| 20260508081024 | 60 | 23 | 1.0 | 3.0 | 0.00 | 0.28 | 0.00 | 97 | 1013.6 |
| 20260508080024 | 61 | 32 | 2.0 | 6.0 | 0.00 | 0.28 | 0.00 | 98 | 1013.4 |
| 20260508075024 | 60 | 25 | 1.0 | 3.0 | 0.00 | 0.28 | 0.00 | 99 | 1013.3 |
| 20260508074044 | 59 | 41 | 2.0 | 4.0 | 0.00 | 0.28 | 0.00 | 99 | 1013.4 |
| 20260508073044 | 59 | 29 | 1.0 | 3.0 | 0.00 | 0.28 | 0.00 | 99 | 1013.3 |
| 20260508072024 | 57 | 34 | 1.0 | 3.0 | 0.00 | 0.28 | 0.00 | 99 | 1013.2 |
| 20260508071024 | 57 | 27 | 1.0 | 2.0 | 0.00 | 0.28 | 0.00 | 99 | 1013.3 |
| 20260508070023 | 57 | 25 | 1.0 | 2.0 | 0.00 | 0.28 | 0.00 | 99 | 1013.2 |
| 20260508065024 | 57 | 29 | 1.0 | 2.0 | 0.00 | 0.28 | 0.00 | 99 | 1013.2 |
| 20260508064044 | 56 | 21 | 1.0 | 3.0 | 0.00 | 0.28 | 0.00 | 99 | 1013.1 |
| 20260508063024 | 56 | 26 | 1.0 | 2.0 | 0.00 | 0.28 | 0.00 | 99 | 1013.1 |
| 20260508062024 | 56 | 14 | 0.0 | 2.0 | 0.00 | 0.28 | 0.00 | 99 | 1013.0 |
| 20260508061024 | 56 | 31 | 1.0 | 2.0 | 0.00 | 0.28 | 0.00 | 99 | 1012.9 |
| 20260508060024 | 56 | 28 | 1.0 | 2.0 | 0.00 | 0.28 | 0.00 | 99 | 1012.8 |
| 20260508055024 | 56 | 29 | 1.0 | 2.0 | 0.00 | 0.28 | 0.00 | 99 | 1012.7 |
| 20260508054024 | 56 | 35 | 1.0 | 3.0 | 0.00 | 0.28 | 0.00 | 99 | 1012.5 |
| 20260508053024 | 56 | 26 | 1.0 | 2.0 | 0.00 | 0.28 | 0.00 | 99 | 1012.3 |
| 20260508052024 | 56 | 28 | 1.0 | 2.0 | 0.00 | 0.28 | 0.00 | 99 | 1012.1 |
| 20260508051024 | 56 | 22 | 0.0 | 2.0 | 0.00 | 0.28 | 0.00 | 99 | 1011.8 |
| 20260508050024 | 55 | 15 | 0.0 | 2.0 | 0.00 | 0.28 | 0.00 | 99 | 1011.7 |
| 20260508045024 | 55 | 17 | 0.0 | 1.0 | 0.00 | 0.28 | 0.00 | 99 | 1011.5 |
| 20260508044044 | 55 | 15 | 0.0 | 1.0 | 0.00 | 0.28 | 0.00 | 99 | 1011.4 |
| 20260508043024 | 55 | 23 | 0.0 | 1.0 | 0.00 | 0.28 | 0.00 | 99 | 1011.5 |
| 20260508042024 | 55 | 34 | 0.0 | 1.0 | 0.00 | 0.28 | 0.00 | 99 | 1011.4 |
| 20260508041025 | 55 | 38 | 0.0 | 1.0 | 0.00 | 0.28 | 0.00 | 99 | 1011.3 |
| 20260508040024 | 56 | 22 | 0.0 | 1.0 | 0.00 | 0.28 | 0.00 | 99 | 1011.2 |
| 20260508035024 | 56 | 18 | 0.0 | 1.0 | 0.00 | 0.28 | 0.00 | 99 | 1011.2 |
| 20260508034024 | 56 | 19 | 1.0 | 2.0 | 0.00 | 0.28 | 0.00 | 99 | 1011.4 |
| 20260508033024 | 56 | 24 | 1.0 | 2.0 | 0.00 | 0.28 | 0.00 | 99 | 1011.6 |
| 20260508032044 | 56 | 0.0 | 0.0 | 0.00 | 0.28 | 0.00 | 99 | 1011.8 | |
| 20260508031024 | 56 | 15 | 0.0 | 1.0 | 0.00 | 0.28 | 0.00 | 99 | 1011.7 |
| 20260508030023 | 56 | 25 | 0.0 | 1.0 | 0.00 | 0.28 | 0.00 | 99 | 1011.6 |
| 20260508025023 | 56 | 15 | 0.0 | 1.0 | 0.00 | 0.29 | 0.00 | 99 | 1011.6 |
| 20260508024023 | 56 | 38 | 1.0 | 3.0 | 0.00 | 0.29 | 0.00 | 99 | 1011.6 |
| 20260508023043 | 56 | 30 | 1.0 | 2.0 | 0.00 | 0.29 | 0.00 | 99 | 1011.6 |
| 20260508022023 | 55 | 23 | 0.0 | 1.0 | 0.00 | 0.29 | 0.00 | 99 | 1011.6 |
| 20260508021023 | 56 | 24 | 1.0 | 2.0 | 0.00 | 0.29 | 0.00 | 99 | 1011.4 |
| 20260508020024 | 56 | 21 | 1.0 | 2.0 | 0.00 | 0.29 | 0.00 | 99 | 1011.4 |
| 20260508015024 | 55 | 21 | 1.0 | 2.0 | 0.00 | 0.29 | 0.00 | 99 | 1011.6 |
| 20260508014024 | 55 | 25 | 0.0 | 2.0 | 0.00 | 0.29 | 0.00 | 99 | 1011.7 |
| 20260508013024 | 56 | 58 | 0.0 | 2.0 | 0.00 | 0.29 | 0.00 | 99 | 1011.8 |
| 20260508012023 | 56 | 21 | 1.0 | 3.0 | 0.00 | 0.29 | 0.00 | 99 | 1011.8 |
| 20260508011023 | 56 | 29 | 0.0 | 2.0 | 0.00 | 0.29 | 0.00 | 99 | 1011.8 |
| 20260508010024 | 56 | 28 | 1.0 | 3.0 | 0.00 | 0.29 | 0.00 | 99 | 1012.1 |
| 20260508005024 | 56 | 27 | 1.0 | 2.0 | 0.00 | 0.29 | 0.00 | 99 | 1012.4 |
| 20260508004024 | 56 | 47 | 1.0 | 2.0 | 0.01 | 0.29 | 0.00 | 99 | 1012.3 |
| 20260508003024 | 56 | 22 | 1.0 | 2.0 | 0.01 | 0.29 | 0.00 | 99 | 1012.4 |
| 20260508002024 | 56 | 21 | 0.0 | 1.0 | 0.01 | 0.29 | 0.00 | 99 | 1012.4 |
| 20260508001024 | 56 | 33 | 1.0 | 2.0 | 0.01 | 0.29 | 0.00 | 99 | 1012.3 |
| 20260508000024 | 56 | 23 | 1.0 | 2.0 | 0.01 | 0.29 | 0.00 | 99 | 1012.5 |
| 20260507235024 | 56 | 27 | 1.0 | 2.0 | 0.02 | 0.29 | 0.29 | 99 | 1012.5 |
| 20260507234024 | 56 | 30 | 0.0 | 2.0 | 0.02 | 0.28 | 0.28 | 99 | 1012.6 |
| 20260507233024 | 56 | 28 | 1.0 | 2.0 | 0.02 | 0.28 | 0.28 | 99 | 1012.9 |
| 20260507232024 | 56 | 20 | 1.0 | 2.0 | 0.03 | 0.28 | 0.28 | 99 | 1013.0 |
| 20260507231024 | 56 | 41 | 1.0 | 2.0 | 0.03 | 0.28 | 0.28 | 99 | 1013.1 |
| 20260507230023 | 56 | 19 | 0.0 | 1.0 | 0.03 | 0.28 | 0.28 | 99 | 1013.1 |
| 20260507225043 | 56 | 18 | 0.0 | 1.0 | 0.02 | 0.27 | 0.27 | 99 | 1013.3 |
| 20260507224023 | 56 | 16 | 0.0 | 2.0 | 0.01 | 0.26 | 0.26 | 99 | 1013.3 |
| 20260507223024 | 56 | 27 | 1.0 | 2.0 | 0.01 | 0.26 | 0.26 | 99 | 1013.3 |
| 20260507222023 | 56 | 41 | 1.0 | 3.0 | 0.00 | 0.25 | 0.25 | 99 | 1013.2 |
| 20260507221023 | 56 | 32 | 1.0 | 3.0 | 0.00 | 0.25 | 0.25 | 99 | 1013.2 |
| 20260507220024 | 56 | 33 | 1.0 | 4.0 | 0.00 | 0.25 | 0.25 | 99 | 1013.2 |
| 20260507215024 | 56 | 33 | 1.0 | 3.0 | 0.00 | 0.25 | 0.25 | 99 | 1013.1 |
| 20260507214024 | 56 | 36 | 1.0 | 3.0 | 0.00 | 0.25 | 0.25 | 99 | 1013.1 |
| 20260507213024 | 56 | 49 | 1.0 | 2.0 | 0.00 | 0.25 | 0.25 | 99 | 1012.9 |
| 20260507212024 | 56 | 41 | 1.0 | 2.0 | 0.00 | 0.25 | 0.25 | 99 | 1013.1 |
| 20260507211024 | 56 | 17 | 1.0 | 2.0 | 0.00 | 0.25 | 0.25 | 99 | 1013.1 |
| 20260507210024 | 56 | 36 | 1.0 | 2.0 | 0.01 | 0.25 | 0.25 | 99 | 1013.2 |
| 20260507205023 | 57 | 31 | 1.0 | 2.0 | 0.01 | 0.25 | 0.25 | 99 | 1012.9 |
| 20260507204024 | 57 | 31 | 1.0 | 3.0 | 0.01 | 0.25 | 0.25 | 99 | 1012.9 |
| 20260507203024 | 57 | 32 | 2.0 | 4.0 | 0.01 | 0.25 | 0.25 | 99 | 1012.7 |
| 20260507202024 | 57 | 50 | 2.0 | 4.0 | 0.02 | 0.25 | 0.25 | 99 | 1012.8 |
| 20260507201024 | 57 | 43 | 2.0 | 4.0 | 0.02 | 0.25 | 0.25 | 99 | 1012.7 |
| 20260507200044 | 57 | 39 | 1.0 | 3.0 | 0.01 | 0.24 | 0.24 | 99 | 1012.6 |
| 20260507195024 | 57 | 43 | 1.0 | 3.0 | 0.02 | 0.24 | 0.24 | 99 | 1012.4 |
| 20260507194024 | 57 | 28 | 1.0 | 2.0 | 0.02 | 0.24 | 0.24 | 99 | 1012.4 |
| 20260507193024 | 57 | 79 | 2.0 | 4.0 | 0.02 | 0.24 | 0.24 | 99 | 1012.1 |
| 20260507192024 | 57 | 43 | 1.0 | 2.0 | 0.01 | 0.23 | 0.23 | 99 | 1012.2 |
| 20260507191023 | 57 | 24 | 1.0 | 3.0 | 0.01 | 0.23 | 0.23 | 99 | 1012.2 |
| 20260507190024 | 57 | 28 | 1.0 | 3.0 | 0.01 | 0.23 | 0.23 | 99 | 1012.1 |
| 20260507185024 | 57 | 23 | 1.0 | 2.0 | 0.00 | 0.22 | 0.22 | 99 | 1012.1 |
| 20260507184024 | 57 | 17 | 1.0 | 2.0 | 0.01 | 0.22 | 0.22 | 99 | 1011.9 |
| 20260507183024 | 57 | 25 | 1.0 | 2.0 | 0.02 | 0.22 | 0.22 | 99 | 1011.8 |
| 20260507182023 | 58 | 22 | 1.0 | 3.0 | 0.03 | 0.22 | 0.22 | 99 | 1011.6 |
| 20260507181023 | 58 | 22 | 1.0 | 2.0 | 0.04 | 0.22 | 0.22 | 99 | 1011.4 |
| 20260507180024 | 58 | 27 | 1.0 | 2.0 | 0.05 | 0.22 | 0.22 | 99 | 1011.3 |
| 20260507175024 | 58 | 58 | 1.0 | 2.0 | 0.07 | 0.22 | 0.22 | 99 | 1011.2 |
| 20260507174024 | 58 | 40 | 1.0 | 2.0 | 0.09 | 0.21 | 0.21 | 99 | 1011.1 |
| 20260507173044 | 58 | 28 | 1.0 | 2.0 | 0.09 | 0.20 | 0.20 | 99 | 1011.1 |
| 20260507172024 | 58 | 18 | 1.0 | 3.0 | 0.10 | 0.19 | 0.19 | 99 | 1011.1 |
| 20260507171024 | 58 | 32 | 2.0 | 4.0 | 0.11 | 0.18 | 0.18 | 99 | 1011.2 |
| 20260507170023 | 58 | 32 | 2.0 | 4.0 | 0.12 | 0.17 | 0.17 | 99 | 1011.4 |
| 20260507165023 | 58 | 30 | 2.0 | 4.0 | 0.11 | 0.15 | 0.15 | 99 | 1011.4 |